{"data":{"norad_id":53783,"epoch":"2026-05-25T02:33:21.791808Z","epoch_age_seconds":55932,"freshness":"FRESH","line1":"1 53783U 22111L   26145.10650222  .00001209  00000+0  94089-4 0  9994","line2":"2 53783  53.2133 290.9897 0001304  90.0306 270.0836 15.08830896205231","mean_motion":15.08830896,"eccentricity":0.0001304,"inclination_deg":53.2133,"raan_deg":290.9897,"arg_perigee_deg":90.0306,"mean_anomaly_deg":270.0836,"bstar":9.4089e-5,"rev_number":20523,"period_min":95.438130529904,"perigee_km":538.8691211585,"apogee_km":540.67331162133,"semimajor_km":6917.9082163899,"source":"CELESTRAK","updated_at":"2026-05-25T13:38:17.542972Z"}}